Location: Downe
(51.3167°N, 0.0500°E)
Time: 21:16:00
(UTC+00:00)

Cosmos 2150 Rocket - Pass Details

Date: 17 November 2019
Orbit: 749 x 807 km, 74.0° (Epoch: 06 December)

Event Time Altitude Azimuth Distance (km) Brightness Sun altitude
Rises 05:39:16 0° 198° (SSW) 3,312 7.2 -15.5°
Reaches altitude 10° 05:41:40 10° 197° (SSW) 2,383 6.5 -15.1°
Maximum altitude 05:47:06 79° 112° (ESE) 824 4.2 -14.3°
Drops below altitude 10° 05:52:31 10° 27° (NNE) 2,376 6.7 -13.5°
Sets 05:54:55 0° 26° (NNE) 3,302 7.4 -13.1°
